Location: Bevenrode
(52.3403°N, 10.5774°E)
Time: 04:53:56
(UTC+00:00)

Daily predictions for brighter satellites

Satellite Brightness Start Highest point End
(mag) Time Altitude Azimuth Time Altitude Azimuth Time Altitude Azimuth
Cosmos 1726 Rocket 4.0 00:07:11 52° E 00:07:11 52° E 00:11:11 10° NNE
Cosmos 1331 Rocket 4.4 00:06:53 48° W 00:07:52 55° WNW 00:13:03 10° NNE
Cosmos 1536 4.1 00:08:45 10° N 00:12:00 29° ENE 00:12:17 29° E
DELTA 2 DEB (DPAF) 4.3 00:09:08 10° NNE 00:11:57 52° N 00:11:57 52° N
ATLAS 2AS CENTAUR R/B 2.8 00:09:45 34° WSW 00:12:56 70° NW 00:19:46 10° NE
IDEFIX/ARIANE 42P 3.9 00:10:42 10° NE 00:15:09 28° E 00:16:41 24° ESE
Meteor 1-5 Rocket 4.1 00:15:01 10° NNW 00:20:21 64° W 00:20:58 59° SW
Cosmos 1953 Rocket 3.5 00:17:37 10° N 00:22:06 78° ENE 00:22:18 76° ESE
Cosmos 1980 Rocket 2.7 00:19:03 10° NW 00:24:20 42° WSW 00:24:20 42° WSW
Cosmos 1766 4.2 00:21:49 10° N 00:24:17 35° NE 00:24:17 35° NE
USA 234 3.6 00:20:11 10° E 00:26:40 66° NNE 00:33:09 10° WNW
Cosmos 44 Rocket 3.9 00:29:47 42° SE 00:30:09 43° ESE 00:35:01 10° NE
Cosmos 1707 4.2 00:31:24 23° ENE 00:31:24 23° ENE 00:33:01 10° NNE
Cosmos 1825 Rocket 4.0 00:28:35 10° NNW 00:32:19 48° WNW 00:32:19 48° WNW
COSMOS 2406 4.0 00:32:29 34° SE 00:33:56 40° ESE 00:39:15 10° NE
Meteor 2-10 4.3 00:29:55 10° NNW 00:35:17 56° W 00:36:02 52° SW
Cosmos 2369 3.7 00:30:10 10° NW 00:35:47 61° WSW 00:36:37 55° SSW
Cosmos 1634 Rocket 4.0 00:35:56 42° SSE 00:38:02 71° E 00:44:11 10° NNE
Cosmos 724 4.4 00:44:49 47° S 00:46:24 63° SE 00:52:16 10° NE
Cosmos 2084 3.3 00:46:23 73° WNW 00:46:36 75° NW 00:50:45 10° NE
Spot 1 3.8 00:42:43 10° NNE 00:46:51 86° ESE 00:47:07 78° S
Cosmos 1607 4.2 00:47:22 42° S 00:49:06 55° ESE 00:55:12 10° NE
Cosmos 2360 Rocket 3.0 00:46:02 10° NNW 00:51:36 52° NE 00:57:07 10° SE
Cosmos-2242 2.8 00:52:12 73° SSE 00:52:33 82° E 00:56:46 10° NNE
Cosmos 2333 Rocket 2.3 00:47:02 10° NNW 00:52:44 78° ENE 00:57:04 18° SE
FENGYUN 3A 4.5 00:49:11 10° NNE 00:54:23 44° E 00:56:43 28° SSE
USA 281 3.1 00:51:27 23° SSE 00:55:49 86° WSW 01:02:27 10° NNW
Cosmos 2082 Rocket 2.2 00:59:24 45° SW 01:01:13 78° WNW 01:06:59 10° NNE
Cosmos 1842 3.8 01:02:44 37° E 01:02:44 37° E 01:05:41 10° NNE
Cosmos 1833 Rocket 4.3 01:00:04 15° W 01:03:35 26° NW 01:08:19 10° NNE
Meteor 2-2 Rocket 4.2 01:02:52 43° S 01:04:49 86° E 01:10:29 10° NNE
Cosmos 2278 3.7 01:00:45 10° NNW 01:06:30 87° ENE 01:11:11 16° SSE
Cosmos 2279 Rocket 4.0 01:03:59 36° S 01:06:43 80° E 01:13:00 10° NNE
Meteor 2-9 Rocket 4.4 01:01:27 10° N 01:06:46 62° ENE 01:10:20 21° SSE
Cosmos 2322 Rocket 2.5 01:01:20 10° NNW 01:06:59 67° NE 01:12:36 10° SE
Cosmos 1486 Rocket 3.9 01:02:00 10° NNW 01:07:15 83° WSW 01:09:37 34° SSE
NPP 4.1 01:02:16 10° NNE 01:07:36 56° E 01:09:56 32° SSE
Resurs 1-4 Rocket 3.9 01:03:53 10° NE 01:08:10 24° E 01:12:17 11° SE
Cosmos 1867 4.4 01:06:15 25° W 01:09:02 45° NW 01:14:18 10° NE
Cosmos 2221 3.5 01:07:40 29° SE 01:09:04 38° E 01:12:55 10° NNE
NOSS 3-3 (A) 4.0 01:14:12 38° S 01:16:00 54° SE 01:22:05 10° NE
ACS3 Solar Sail 1.9 01:10:11 10° N 01:16:06 61° WNW 01:18:33 36° SW
Cosmos 1777 Rocket 3.9 01:12:36 10° NNW 01:17:53 79° WSW 01:20:41 28° SSE
Cosmos 2219 Rocket 2.9 01:15:23 10° NNW 01:20:56 53° NE 01:26:27 10° SE
SL-16 R/B 2.2 01:16:24 10° NW 01:22:01 63° WSW 01:24:52 29° S
H-2A R/B 4.1 01:18:49 10° NE 01:22:49 22° E 01:26:51 10° SE
GP-B 3.8 01:18:53 10° NNW 01:22:56 37° W 01:23:25 36° W
Meteor 1-11 Rocket 4.3 01:17:16 10° N 01:23:09 60° ENE 01:28:51 10° SSE
CZ-4C R/B 2.0 01:22:06 40° WSW 01:23:44 71° NW 01:29:30 10° NE
Cosmos 1271 Rocket 3.2 01:27:38 36° SE 01:28:29 45° E 01:31:50 10° NNE
Meteor 1-14 Rocket 4.2 01:23:18 10° NNW 01:29:06 84° WSW 01:32:37 24° S
ATLAS 3B R/B 4.0 01:23:46 10° WNW 01:29:16 22° WSW 01:29:24 22° WSW
SL-4 R/B 2.8 01:31:34 31° SSE 01:31:34 31° SSE 01:33:53 10° SE
USA 267 4.0 01:24:42 10° ENE 01:30:50 40° SE 01:34:01 25° S
NOSS 3-3 (C) 4.0 01:30:27 34° S 01:32:43 59° SE 01:38:58 10° NE
Cosmos 2058 Rocket 3.5 01:32:04 40° WSW 01:33:04 48° WNW 01:37:21 10° N
Cosmos 2266 Rocket 3.9 01:28:29 10° N 01:34:40 89° W 01:39:09 19° S
Cosmos 1470 2.2 01:32:48 10° NNW 01:36:08 69° W 01:36:16 68° WSW
Gbstr 26 Del rocket 2.9 01:37:23 46° S 01:37:23 46° S 01:40:31 10° SE
KORONAS-FOTON 3.6 01:38:28 51° W 01:38:37 52° WNW 01:41:54 10° N
USA 290 4.1 01:37:48 19° SE 01:38:50 22° ESE 01:41:21 10° NE
Cosmos 909 Rocket 4.3 01:37:59 26° WSW 01:41:33 62° NW 01:48:02 10° NE
Cosmos 1536 3.9 01:44:07 10° NNW 01:46:48 25° W 01:46:48 25° W
Cosmos 2333 4.1 01:41:50 10° NNW 01:47:32 85° WSW 01:53:14 10° SSE
Cosmos 1655 Rocket 4.4 01:43:31 10° N 01:49:45 66° ENE 01:55:55 10° SSE
DMSP B5D2-2 4.0 01:45:24 13° SSE 01:50:05 90° ESE 01:55:19 10° NNW
Cosmos 1812 Rocket 3.5 01:49:34 30° S 01:51:41 81° E 01:56:03 10° NNE
Meteor 2-6 Rocket 4.4 01:49:05 29° SSW 01:52:05 66° WNW 01:58:00 10° N
NOSS 3-4 (A) 3.8 01:45:51 10° NW 01:52:24 88° NE 02:00:10 10° SE
NOSS 3-4 (C) 3.8 01:46:23 10° NW 01:52:58 88° NE 02:00:45 10° SE
IDEFIX/ARIANE 42P 2.9 01:49:50 10° N 01:54:52 53° WNW 01:57:22 28° SW
COSMOS 2441 4.3 01:52:10 10° NNE 01:57:00 89° ESE 01:59:44 26° SSW
Envisat 3.4 01:52:31 10° NNE 01:57:34 62° ESE 02:01:23 17° S
Aureole 1 Rocket 3.2 01:54:53 10° NNW 01:58:54 77° ENE 02:03:56 10° SSE
Meteor 2-20 4.5 01:54:40 19° S 01:59:14 83° E 02:05:24 10° NNE
Cosmos 2084 Rocket 3.3 01:58:37 10° NW 02:02:45 58° SW 02:06:55 10° SSE
Cosmos 1707 4.1 02:03:05 16° WNW 02:03:05 16° WNW 02:04:53 10° NNW
SWARM C 4.4 02:01:35 10° N 02:04:51 88° E 02:06:24 28° S
ATLAS 2AS CENTAUR R/B 4.0 01:58:40 10° W 02:04:53 35° NNW 02:11:04 10° NE
SWARM A 4.3 02:01:40 10° N 02:04:55 74° E 02:06:47 23° S
Iridium 4 Rocket 3.3 02:03:00 20° S 02:06:17 89° W 02:11:27 10° N
MOZ.5/SAFIR/RUBIN 5/SL-8 4.0 02:05:32 24° SSW 02:08:04 49° W 02:12:35 10° NNW
Meteor 1-27 Rocket 4.2 02:03:31 12° S 02:08:58 64° E 02:14:50 10° NNE
H-2A R/B 2.0 02:06:25 16° SSE 02:09:12 83° WSW 02:12:48 10° NNW
USA 234 3.2 02:03:09 10° SE 02:09:41 73° SSW 02:16:15 10° WNW
Cosmos 1975 3.2 02:06:26 10° NNW 02:09:48 36° W 02:10:35 32° WSW
Cosmos 990 Rocket 4.0 02:05:30 10° NNW 02:10:31 55° WSW 02:15:31 10° S
ADEOS II 2.9 02:05:59 10° NNE 02:11:04 49° E 02:16:07 10° S
Cosmos 44 Rocket 4.0 02:08:21 21° WSW 02:11:34 48° NW 02:16:37 10° NE
ALOS 2.5 02:11:08 10° NNE 02:15:42 67° ESE 02:19:31 14° S
MSX 4.5 02:10:54 10° N 02:16:16 42° WNW 02:19:47 20° WSW
Cosmos 1763 Rocket 3.5 02:13:16 22° SSW 02:16:43 84° WNW 02:22:03 10° NNE
Cosmos 1238 Rocket 2.7 02:15:06 20° SSE 02:16:50 52° E 02:19:48 10° NNE
COSMOS 2406 3.8 02:14:30 21° WSW 02:18:10 48° NW 02:23:45 10° NNE
CZ-2D R/B 2.3 02:14:26 10° NNE 02:19:43 74° ESE 02:24:33 13° S
COSMOS 2428 3.6 02:14:19 10° NNW 02:19:57 53° NE 02:25:31 10° SE
SL-16 R/B 3.4 02:15:49 10° SE 02:21:52 54° ENE 02:27:58 10° N
ADEOS Rocket 3.7 02:15:09 10° NNE 02:22:33 64° WNW 02:28:49 16° SW
Sich 1 4.3 02:20:39 10° N 02:24:38 41° ENE 02:28:34 10° SE
Cosmos 1898 Rocket 3.6 02:23:29 10° NNW 02:28:41 80° ENE 02:33:51 10° SSE
Spot 2 4.4 02:24:14 10° S 02:29:01 66° WSW 02:33:59 10° NNW
Cosmos 1937 Rocket 3.9 02:28:00 10° NNW 02:33:14 67° ENE 02:38:21 10° SE
FENGYUN 3A 4.5 02:29:35 10° N 02:34:33 37° WNW 02:38:14 17° WSW
Cosmos 2360 Rocket 2.8 02:30:18 10° NW 02:35:25 35° WSW 02:40:30 10° S
Cosmos 2333 Rocket 3.4 02:32:09 10° NW 02:36:25 22° WSW 02:39:00 16° SW
SL-19 R/B 4.5 02:31:17 10° NNE 02:36:57 78° ESE 02:42:55 10° SSW
Alouette 2 Rocket 3.3 02:33:09 10° NNW 02:37:21 60° W 02:40:52 10° S
USA 305 1.9 02:38:24 20° WNW 02:39:21 32° N 02:40:33 10° ENE
USA 281 4.4 02:38:17 16° SW 02:41:11 21° W 02:46:01 10° NW
Meteor 2-10 Rocket 3.6 02:37:45 10° NNW 02:42:52 81° ENE 02:48:07 10° SSE
H-2A R/B 3.6 02:40:56 10° NNE 02:44:32 31° E 02:48:05 10° SSE
Cosmos 540 Rocket 3.7 02:41:19 16° SW 02:45:17 58° WNW 02:50:23 10° NNE
Cosmos 2221 3.7 02:43:58 16° WSW 02:46:13 25° WNW 02:49:41 10° N
Cosmos 2082 Rocket 3.9 02:41:43 10° W 02:46:14 23° NW 02:50:46 10° NNE
Resurs 1-4 Rocket 2.2 02:43:05 10° N 02:48:21 63° WNW 02:53:19 11° SSW
Cosmos 1553 Rocket 4.3 02:42:19 10° S 02:48:27 69° E 02:54:44 10° NNE
Cosmos 2322 Rocket 3.1 02:45:59 10° NW 02:50:33 26° WSW 02:55:07 10° SSW
Cosmos 468 Rocket 4.0 02:46:38 12° SSW 02:51:31 83° WNW 02:56:51 10° NNE
BREEZE-M DEB (TANK) 3.5 02:50:12 13° W 02:52:44 51° S 03:00:54 10° ESE
CZ-2C R/B 4.4 02:51:34 10° NE 02:55:45 28° E 02:59:49 10° SSE
Cosmos 1766 Rocket 3.9 02:52:16 10° NNW 02:56:23 42° W 03:00:27 10° SSW
ACS3 Solar Sail 3.7 02:54:06 10° NNW 02:57:25 15° NW 03:00:44 10° W
Cosmos 1833 4.3 02:53:59 12° SW 02:59:13 72° WNW 03:04:55 10° NNE
H-2A R/B 2.1 02:57:28 10° N 03:02:33 66° WNW 03:07:43 10° SSW
Cosmos 1271 Rocket 4.3 03:01:02 12° W 03:02:58 17° WNW 03:05:18 10° NNW
Cosmos 2219 Rocket 2.8 02:59:39 10° NW 03:04:39 34° WSW 03:09:40 10° S
CRYOSAT 2 4.5 03:00:00 10° S 03:04:47 58° W 03:09:38 10° NNW
SL-16 R/B 4.0 03:03:01 10° WNW 03:04:57 12° W 03:06:38 10° WSW
Cosmos 2237 Rocket 3.2 02:59:22 10° NNW 03:04:58 51° NE 03:10:30 10° SE
RESURS DK-1 3.6 03:02:19 10° NNW 03:06:09 44° NE 03:09:57 10° ESE
Cosmos 44 4.1 03:00:55 10° NW 03:06:19 64° NE 03:11:37 10° SE
SL-4 R/B 3.5 03:05:08 12° WSW 03:06:54 15° SW 03:09:08 10° S
SL-14 R/B 3.7 03:05:59 10° S 03:09:49 63° E 03:13:41 10° NNE
USA 290 3.3 03:10:18 12° WSW 03:12:51 29° NW 03:15:42 10° N
CZ-4C R/B 3.7 03:08:24 10° WNW 03:12:55 31° NNW 03:18:38 10° NE
ARGOS 3.3 03:08:07 10° NNE 03:13:33 78° ESE 03:18:55 10° SSW
USA 267 3.3 03:07:42 10° ENE 03:14:18 89° N 03:20:54 10° WSW
Cosmos 1408 Rocket 3.7 03:10:18 10° N 03:14:38 79° E 03:18:53 10° SSE
Cosmos 1745 Rocket 4.2 03:09:04 10° N 03:15:17 80° E 03:21:25 10° SSE
METEOR-M 4.2 03:10:49 10° NNE 03:16:09 73° WNW 03:21:27 10° SSW
Gbstr 26 Del rocket 4.4 03:20:24 10° WSW 03:22:24 14° SW 03:24:26 10° S
Cosmos 2322 3.8 03:19:36 10° NW 03:25:12 57° WSW 03:30:45 10° S
